Погода в Коувола

Финляндия     60°52′14″N   26°42′11″E
темп.,
°C
ветер,
м/с
пор.,
м/с
влажн.,
%
обл.,
%
осадки,
мм/ч
давл.,
гПа
погр.,
м
8 марта, пн
пн823:00−8с51185100 0.1 1004930
02:00−9с51184100 0.1 1007727
05:00−11с41187100 0.0 1010467
08:00−12с498596 0.0 1013354
11:00−9с367574 0.0 1015422
14:00−6ссз366460 0.0 1015792
17:00−7с257529 0.0 1016297
20:00−11ссв118525 0.0 101721
9 марта, вт
вт923:00−10вюв238898 0.0 1017103
02:00−11вюв258399 0.0 1017200
05:00−11вюв3792100 0.2 1016267
08:00−12вюв4992100 0.8 1016370
11:00−11в5986100 0.5 1018504
14:00−10в4875100 0.6 1019610
17:00−10всв487667 0.0 1020663
20:00−14всв4108842 0.0 1023433
10 марта, ср
ср1023:00−16всв49885 0.0 1025371
02:00−17всв38903 0.0 1027318
05:00−18всв37910 0.0 1028248
08:00−17всв368622 0.0 1029250
11:00−12в2571100 0.0 1030361
14:00−8вюв246056 0.0 1029522
17:00−10юв25700 0.0 1028317
20:00−13вюв26820 0.0 1028141
11 марта, чт
чт1123:00−13вюв27820 0.0 1028163
02:00−12юв39800 0.0 1027254
05:00−11юв411800 0.0 1024355
08:00−10ююв512670 0.0 1022768
11:00−7ююв712600 0.0 1019812
14:00−7ююв6137526 0.0 1015799
17:00−6ююв61388100 0.2 1012818
20:00−5ююв71489100 0.4 1008927
12 марта, пт
пт1223:00−2ююв81687100 0.3 10041149
02:00−3ююв81688100 0.6 10001073
05:00−3ююв81693100 3.8 9961228
08:00−2ююв81693100 7.3 9931143
11:00−1ююв71395100 2.8 991866
14:00+1ююз41198100 5.7 990564
17:00+1ююз41196100 0.1 991676
20:00+1ююз41198100 0.2 991612